CZ-6A DEB, 54327

Orbit data source: Space-Track

CZ-6A DEB, 54327 is space debris in SSO originally from a launch on Fri, 11 Nov 2022 UTC launched from the Taiyaun Space Center, China (TSC). Debris objects in space refer to the collection of defunct objects orbiting the Earth. Examples of debris include non-operational satellites, rocket bodies, and fragments generated from explosions, collisions, or faulty payload assembly.

Loading next visibility...
Identifier
54327, 2022-151BW
Orbit
SSO
Country
Flag of CNCN / PRC
Related business
Manufacturer
SAST
Mission
Spacecraft
Bus & Motor
Unknown
Mass
Unknown
Launch date (UTC)
2022-11-11 (4 years ago)
Launch vehicle
Unknown
Launch site
Taiyaun Space Center, China (TSC)
Object type
Payload
Rocket body
Debris
Shape & HBR
Unknown shape, 0.1 m
Radar Cross Section
Medium (>0.1 m² and <1 m²)

Expand to show TLE details & history
Last TLE update: 12 hours ago

TLE from 12 hours ago
0 CZ-6A DEB
1 54327U 22151BW  26219.92935052  .00000370  00000-0  22511-3 0  9991
2 54327  98.8307 216.4249 0047620 188.2361 171.8033 14.11624383191753
Epoch: 2026-08-07T22:18Z
TLE epoch observation values (Epoch: 2026-08-07T22:18:15.884Z)
Latitude
-0.00013°
Longitude
-74.58926°
Altitude
890.814 km
Speed
7.389 km/s
True Right ascension
14h 25m 41s
True Declination
0° 00' 00"
Sunlit
Object was in daylight at epoch
Visualization orbit readout
Latitude
Unknown
Longitude
Unknown
Altitude
Unknown
Speed
Unknown
Apparent Right ascension
Unknown
Apparent Declination
Unknown
Sunlit
N/A
Visualization observer readout
Local Sidereal Time
00:50:14
Azimuth
Unknown
Elevation
Unknown
Doppler factor
Unknown
Orbital elements
Apogee altitude
885.419 km
Perigee altitude
816.569 km
Semi-major axis
7,229.131 km
Eccentricity
0.00476
Inclination
98.8307°
RAAN
216.4249°
Arg. of periapsis
188.2361°
True anomaly
171.88064°
Mean anomaly
171.8033°
Eccentric anomaly
171.84202°
Mean motion
3.53113 °/min
Orbital period
101.95 mins
BSTAR
0.00022511
Loading maneuver chart data...
Computing Atmospheric mass density...

Documentation

Showing up to 5 results
|